Netzbetreibername:;Netze Duisburg GmbH
Netz- oder Umspannebene:;NS
Lastgangtyp:;Summenlast der nicht leistungsgemessenen Kunden
gesetzliche Grundlage:;� 17 Abs. 2 Nr. 3 StromNZV
Einheit:;kW
;
Datum;NS
01.01.2020 00:00;89.456
01.01.2020 00:15;90.116
01.01.2020 00:30;91.205
01.01.2020 00:45;91.003
01.01.2020 01:00;89.939
01.01.2020 01:15;88.719
01.01.2020 01:30;87.272
01.01.2020 01:45;85.458
01.01.2020 02:00;84.228
01.01.2020 02:15;82.496
01.01.2020 02:30;80.998
01.01.2020 02:45;79.159
01.01.2020 03:00;78.182
01.01.2020 03:15;76.397
01.01.2020 03:30;75.111
01.01.2020 03:45;74.068
01.01.2020 04:00;72.972
01.01.2020 04:15;71.517
01.01.2020 04:30;70.563
01.01.2020 04:45;69.754
01.01.2020 05:00;69.149
01.01.2020 05:15;68.043
01.01.2020 05:30;66.351
01.01.2020 05:45;65.377
01.01.2020 06:00;63.925
01.01.2020 06:15;62.774
01.01.2020 06:30;61.902
01.01.2020 06:45;61.152
01.01.2020 07:00;61.867
01.01.2020 07:15;62.747
01.01.2020 07:30;64.458
01.01.2020 07:45;66.300
01.01.2020 08:00;68.787
01.01.2020 08:15;72.128
01.01.2020 08:30;75.604
01.01.2020 08:45;80.065
01.01.2020 09:00;84.283
01.01.2020 09:15;88.569
01.01.2020 09:30;92.756
01.01.2020 09:45;96.513
01.01.2020 10:00;100.907
01.01.2020 10:15;105.367
01.01.2020 10:30;109.190
01.01.2020 10:45;112.512
01.01.2020 11:00;115.552
01.01.2020 11:15;119.812
01.01.2020 11:30;122.657
01.01.2020 11:45;125.016
01.01.2020 12:00;127.027
01.01.2020 12:15;129.531
01.01.2020 12:30;130.850
01.01.2020 12:45;131.269
01.01.2020 13:00;131.077
01.01.2020 13:15;131.984
01.01.2020 13:30;130.436
01.01.2020 13:45;129.953
01.01.2020 14:00;133.109
01.01.2020 14:15;134.477
01.01.2020 14:30;133.796
01.01.2020 14:45;132.832
01.01.2020 15:00;133.457
01.01.2020 15:15;132.346
01.01.2020 15:30;130.396
01.01.2020 15:45;130.030
01.01.2020 16:00;129.027
01.01.2020 16:15;130.306
01.01.2020 16:30;132.719
01.01.2020 16:45;137.101
01.01.2020 17:00;139.200
01.01.2020 17:15;141.905
01.01.2020 17:30;143.982
01.01.2020 17:45;144.457
01.01.2020 18:00;145.453
01.01.2020 18:15;144.014
01.01.2020 18:30;143.496
01.01.2020 18:45;141.742
01.01.2020 19:00;141.886
01.01.2020 19:15;139.332
01.01.2020 19:30;137.378
01.01.2020 19:45;135.098
01.01.2020 20:00;132.274
01.01.2020 20:15;130.175
01.01.2020 20:30;129.838
01.01.2020 20:45;128.821
01.01.2020 21:00;127.482
01.01.2020 21:15;127.794
01.01.2020 21:30;125.960
01.01.2020 21:45;125.413
01.01.2020 22:00;121.284
01.01.2020 22:15;117.306
01.01.2020 22:30;112.730
01.01.2020 22:45;108.840
01.01.2020 23:00;103.583
01.01.2020 23:15;99.495
01.01.2020 23:30;94.149
01.01.2020 23:45;90.068
02.01.2020 00:00;86.486
02.01.2020 00:15;82.829
02.01.2020 00:30;80.039
02.01.2020 00:45;77.488
02.01.2020 01:00;75.063
02.01.2020 01:15;73.468
02.01.2020 01:30;71.593
02.01.2020 01:45;70.500
02.01.2020 02:00;69.360
02.01.2020 02:15;68.841
02.01.2020 02:30;67.624
02.01.2020 02:45;67.237
02.01.2020 03:00;66.776
02.01.2020 03:15;66.945
02.01.2020 03:30;66.944
02.01.2020 03:45;67.678
02.01.2020 04:00;68.390
02.01.2020 04:15;68.654
02.01.2020 04:30;69.714
02.01.2020 04:45;71.084
02.01.2020 05:00;74.300
02.01.2020 05:15;74.002
02.01.2020 05:30;75.409
02.01.2020 05:45;75.977
02.01.2020 06:00;78.725
02.01.2020 06:15;80.699
02.01.2020 06:30;82.146
02.01.2020 06:45;83.905
02.01.2020 07:00;86.338
02.01.2020 07:15;89.607
02.01.2020 07:30;91.919
02.01.2020 07:45;94.253
02.01.2020 08:00;98.476
02.01.2020 08:15;103.690
02.01.2020 08:30;106.469
02.01.2020 08:45;110.160
02.01.2020 09:00;113.692
02.01.2020 09:15;117.061
02.01.2020 09:30;118.554
02.01.2020 09:45;120.900
02.01.2020 10:00;122.893
02.01.2020 10:15;124.706
02.01.2020 10:30;126.627
02.01.2020 10:45;127.642
02.01.2020 11:00;129.022
02.01.2020 11:15;130.477
02.01.2020 11:30;131.325
02.01.2020 11:45;133.587
02.01.2020 12:00;134.731
02.01.2020 12:15;136.525
02.01.2020 12:30;136.769
02.01.2020 12:45;136.134
02.01.2020 13:00;135.775
02.01.2020 13:15;135.647
02.01.2020 13:30;134.439
02.01.2020 13:45;134.896
02.01.2020 14:00;139.021
02.01.2020 14:15;140.835
02.01.2020 14:30;141.189
02.01.2020 14:45;140.302
02.01.2020 15:00;140.142
02.01.2020 15:15;138.565
02.01.2020 15:30;137.359
02.01.2020 15:45;137.366
02.01.2020 16:00;136.498
02.01.2020 16:15;137.032
02.01.2020 16:30;138.984
02.01.2020 16:45;142.483
02.01.2020 17:00;144.282
02.01.2020 17:15;146.060
02.01.2020 17:30;146.977
02.01.2020 17:45;147.730
02.01.2020 18:00;147.480
02.01.2020 18:15;145.742
02.01.2020 18:30;145.238
02.01.2020 18:45;145.302
02.01.2020 19:00;144.259
02.01.2020 19:15;141.841
02.01.2020 19:30;139.908
02.01.2020 19:45;138.263
02.01.2020 20:00;134.992
02.01.2020 20:15;132.551
02.01.2020 20:30;133.068
02.01.2020 20:45;131.691
02.01.2020 21:00;129.803
02.01.2020 21:15;130.000
02.01.2020 21:30;128.372
02.01.2020 21:45;129.273
02.01.2020 22:00;124.415
02.01.2020 22:15;118.977
02.01.2020 22:30;114.187
02.01.2020 22:45;109.202
02.01.2020 23:00;105.056
02.01.2020 23:15;99.201
02.01.2020 23:30;94.276
02.01.2020 23:45;89.916
03.01.2020 00:00;86.307
03.01.2020 00:15;81.960
03.01.2020 00:30;78.455
03.01.2020 00:45;75.515
03.01.2020 01:00;72.773
03.01.2020 01:15;70.324
03.01.2020 01:30;68.580
03.01.2020 01:45;67.188
03.01.2020 02:00;65.799
03.01.2020 02:15;65.222
03.01.2020 02:30;64.420
03.01.2020 02:45;64.019
03.01.2020 03:00;64.318
03.01.2020 03:15;63.935
03.01.2020 03:30;64.132
03.01.2020 03:45;64.571
03.01.2020 04:00;65.300
03.01.2020 04:15;65.708
03.01.2020 04:30;66.634
03.01.2020 04:45;68.196
03.01.2020 05:00;69.765
03.01.2020 05:15;70.923
03.01.2020 05:30;72.081
03.01.2020 05:45;73.311
03.01.2020 06:00;76.124
03.01.2020 06:15;76.976
03.01.2020 06:30;78.711
03.01.2020 06:45;81.218
03.01.2020 07:00;84.842
03.01.2020 07:15;87.864
03.01.2020 07:30;91.080
03.01.2020 07:45;93.484
03.01.2020 08:00;97.162
03.01.2020 08:15;101.238
03.01.2020 08:30;105.374
03.01.2020 08:45;108.074
03.01.2020 09:00;111.487
03.01.2020 09:15;114.789
03.01.2020 09:30;117.434
03.01.2020 09:45;119.956
03.01.2020 10:00;121.418
03.01.2020 10:15;123.782
03.01.2020 10:30;125.569
03.01.2020 10:45;126.965
03.01.2020 11:00;127.804
03.01.2020 11:15;130.449
03.01.2020 11:30;132.488
03.01.2020 11:45;133.450
03.01.2020 12:00;135.161
03.01.2020 12:15;136.024
03.01.2020 12:30;135.744
03.01.2020 12:45;135.438
03.01.2020 13:00;136.055
03.01.2020 13:15;136.186
03.01.2020 13:30;136.155
03.01.2020 13:45;135.337
03.01.2020 14:00;139.123
03.01.2020 14:15;141.403
03.01.2020 14:30;142.525
03.01.2020 14:45;142.103
03.01.2020 15:00;141.768
03.01.2020 15:15;140.994
03.01.2020 15:30;140.032
03.01.2020 15:45;139.538
03.01.2020 16:00;137.372
03.01.2020 16:15;137.047
03.01.2020 16:30;139.367
03.01.2020 16:45;142.740
03.01.2020 17:00;143.449
03.01.2020 17:15;144.341
03.01.2020 17:30;144.647
03.01.2020 17:45;144.988
03.01.2020 18:00;145.340
03.01.2020 18:15;144.912
03.01.2020 18:30;143.447
03.01.2020 18:45;142.633
03.01.2020 19:00;140.509
03.01.2020 19:15;139.406
03.01.2020 19:30;138.015
03.01.2020 19:45;135.788
03.01.2020 20:00;133.308
03.01.2020 20:15;131.581
03.01.2020 20:30;131.745
03.01.2020 20:45;130.325
03.01.2020 21:00;128.044
03.01.2020 21:15;128.429
03.01.2020 21:30;126.029
03.01.2020 21:45;125.472
03.01.2020 22:00;121.533
03.01.2020 22:15;118.574
03.01.2020 22:30;114.251
03.01.2020 22:45;109.109
03.01.2020 23:00;104.917
03.01.2020 23:15;100.569
03.01.2020 23:30;96.149
03.01.2020 23:45;92.523
04.01.2020 00:00;88.259
04.01.2020 00:15;84.657
04.01.2020 00:30;80.973
04.01.2020 00:45;77.444
04.01.2020 01:00;74.972
04.01.2020 01:15;72.716
04.01.2020 01:30;70.649
04.01.2020 01:45;69.168
04.01.2020 02:00;68.436
04.01.2020 02:15;67.192
04.01.2020 02:30;66.487
04.01.2020 02:45;66.181
04.01.2020 03:00;66.016
04.01.2020 03:15;65.624
04.01.2020 03:30;65.728
04.01.2020 03:45;65.583
04.01.2020 04:00;65.853
04.01.2020 04:15;65.748
04.01.2020 04:30;66.441
04.01.2020 04:45;66.697
04.01.2020 05:00;67.403
04.01.2020 05:15;66.786
04.01.2020 05:30;65.797
04.01.2020 05:45;65.046
04.01.2020 06:00;67.035
04.01.2020 06:15;66.826
04.01.2020 06:30;67.990
04.01.2020 06:45;68.726
04.01.2020 07:00;71.643
04.01.2020 07:15;74.844
04.01.2020 07:30;79.246
04.01.2020 07:45;82.805
04.01.2020 08:00;87.947
04.01.2020 08:15;94.775
04.01.2020 08:30;99.520
04.01.2020 08:45;103.742
04.01.2020 09:00;108.869
04.01.2020 09:15;113.398
04.01.2020 09:30;117.286
04.01.2020 09:45;120.800
04.01.2020 10:00;124.280
04.01.2020 10:15;127.354
04.01.2020 10:30;129.108
04.01.2020 10:45;130.755
04.01.2020 11:00;133.313
04.01.2020 11:15;136.013
04.01.2020 11:30;136.296
04.01.2020 11:45;137.353
04.01.2020 12:00;138.021
04.01.2020 12:15;140.268
04.01.2020 12:30;140.482
04.01.2020 12:45;141.370
04.01.2020 13:00;141.385
04.01.2020 13:15;142.366
04.01.2020 13:30;142.082
04.01.2020 13:45;141.368
04.01.2020 14:00;145.197
04.01.2020 14:15;146.983
04.01.2020 14:30;147.772
04.01.2020 14:45;146.150
04.01.2020 15:00;146.418
04.01.2020 15:15;145.257
04.01.2020 15:30;143.708
04.01.2020 15:45;142.991
04.01.2020 16:00;141.212
04.01.2020 16:15;140.713
04.01.2020 16:30;142.064
04.01.2020 16:45;145.248
04.01.2020 17:00;146.746
04.01.2020 17:15;147.229
04.01.2020 17:30;147.744
04.01.2020 17:45;147.813
04.01.2020 18:00;146.848
04.01.2020 18:15;145.513
04.01.2020 18:30;145.543
04.01.2020 18:45;144.539
04.01.2020 19:00;142.741
04.01.2020 19:15;140.667
04.01.2020 19:30;139.559
04.01.2020 19:45;136.378
04.01.2020 20:00;132.835
04.01.2020 20:15;130.780
04.01.2020 20:30;130.211
04.01.2020 20:45;128.373
04.01.2020 21:00;126.511
04.01.2020 21:15;127.662
04.01.2020 21:30;126.116
04.01.2020 21:45;125.579
04.01.2020 22:00;122.540
04.01.2020 22:15;118.571
04.01.2020 22:30;115.424
04.01.2020 22:45;112.418
04.01.2020 23:00;107.509
04.01.2020 23:15;103.878
04.01.2020 23:30;101.076
04.01.2020 23:45;96.427
05.01.2020 00:00;91.752
05.01.2020 00:15;87.536
05.01.2020 00:30;84.075
05.01.2020 00:45;80.999
05.01.2020 01:00;78.144
05.01.2020 01:15;75.076
05.01.2020 01:30;72.944
05.01.2020 01:45;71.587
05.01.2020 02:00;69.831
05.01.2020 02:15;68.698
05.01.2020 02:30;67.955
05.01.2020 02:45;66.674
05.01.2020 03:00;66.047
05.01.2020 03:15;65.160
05.01.2020 03:30;65.076
05.01.2020 03:45;64.809
05.01.2020 04:00;64.721
05.01.2020 04:15;64.466
05.01.2020 04:30;63.653
05.01.2020 04:45;63.620
05.01.2020 05:00;63.989
05.01.2020 05:15;63.032
05.01.2020 05:30;62.376
05.01.2020 05:45;62.195
05.01.2020 06:00;62.492
05.01.2020 06:15;61.835
05.01.2020 06:30;62.668
05.01.2020 06:45;63.070
05.01.2020 07:00;65.798
05.01.2020 07:15;68.280
05.01.2020 07:30;71.729
05.01.2020 07:45;74.957
05.01.2020 08:00;79.322
05.01.2020 08:15;84.638
05.01.2020 08:30;90.902
05.01.2020 08:45;96.379
05.01.2020 09:00;101.885
05.01.2020 09:15;107.976
05.01.2020 09:30;113.207
05.01.2020 09:45;116.460
05.01.2020 10:00;120.328
05.01.2020 10:15;125.944
05.01.2020 10:30;129.097
05.01.2020 10:45;132.453
05.01.2020 11:00;136.603
05.01.2020 11:15;139.703
05.01.2020 11:30;143.479
05.01.2020 11:45;146.143
05.01.2020 12:00;148.281
05.01.2020 12:15;149.580
05.01.2020 12:30;150.315
05.01.2020 12:45;149.891
05.01.2020 13:00;149.538
05.01.2020 13:15;149.641
05.01.2020 13:30;147.985
05.01.2020 13:45;146.985
05.01.2020 14:00;150.186
05.01.2020 14:15;150.923
05.01.2020 14:30;150.054
05.01.2020 14:45;148.786
05.01.2020 15:00;147.594
05.01.2020 15:15;147.297
05.01.2020 15:30;145.486
05.01.2020 15:45;144.842
05.01.2020 16:00;143.196
05.01.2020 16:15;144.813
05.01.2020 16:30;146.033
05.01.2020 16:45;149.067
05.01.2020 17:00;150.849
05.01.2020 17:15;150.607
05.01.2020 17:30;152.209
05.01.2020 17:45;152.626
05.01.2020 18:00;152.518
05.01.2020 18:15;151.220
05.01.2020 18:30;150.309
05.01.2020 18:45;149.167
05.01.2020 19:00;148.434
05.01.2020 19:15;147.261
05.01.2020 19:30;144.762
05.01.2020 19:45;140.573
05.01.2020 20:00;137.671
05.01.2020 20:15;134.506
05.01.2020 20:30;133.738
05.01.2020 20:45;130.783
05.01.2020 21:00;129.496
05.01.2020 21:15;128.551
05.01.2020 21:30;126.913
05.01.2020 21:45;126.437
05.01.2020 22:00;121.258
05.01.2020 22:15;116.655
05.01.2020 22:30;111.688
05.01.2020 22:45;106.697
05.01.2020 23:00;101.236
05.01.2020 23:15;95.864
05.01.2020 23:30;90.501
05.01.2020 23:45;85.766
06.01.2020 00:00;81.761
06.01.2020 00:15;78.215
06.01.2020 00:30;74.186
06.01.2020 00:45;71.296
06.01.2020 01:00;69.530
06.01.2020 01:15;67.229
06.01.2020 01:30;65.638
06.01.2020 01:45;64.291
06.01.2020 02:00;63.182
06.01.2020 02:15;62.856
06.01.2020 02:30;62.358
06.01.2020 02:45;62.245
06.01.2020 03:00;62.700
06.01.2020 03:15;62.932
06.01.2020 03:30;63.814
06.01.2020 03:45;64.512
06.01.2020 04:00;66.120
06.01.2020 04:15;67.327
06.01.2020 04:30;68.672
06.01.2020 04:45;71.202
06.01.2020 05:00;74.430
06.01.2020 05:15;75.450
06.01.2020 05:30;77.716
06.01.2020 05:45;79.904
06.01.2020 06:00;84.836
06.01.2020 06:15;86.483
06.01.2020 06:30;88.863
06.01.2020 06:45;90.640
06.01.2020 07:00;94.204
06.01.2020 07:15;97.227
06.01.2020 07:30;99.706
06.01.2020 07:45;101.932
06.01.2020 08:00;105.940
06.01.2020 08:15;110.284
06.01.2020 08:30;110.272
06.01.2020 08:45;111.865
06.01.2020 09:00;114.462
06.01.2020 09:15;116.441
06.01.2020 09:30;117.220
06.01.2020 09:45;118.027
06.01.2020 10:00;118.803
06.01.2020 10:15;119.555
06.01.2020 10:30;119.880
06.01.2020 10:45;121.168
06.01.2020 11:00;121.857
06.01.2020 11:15;123.429
06.01.2020 11:30;124.459
06.01.2020 11:45;125.942
06.01.2020 12:00;127.258
06.01.2020 12:15;128.203
06.01.2020 12:30;128.661
06.01.2020 12:45;127.964
06.01.2020 13:00;127.298
06.01.2020 13:15;127.089
06.01.2020 13:30;126.894
06.01.2020 13:45;125.540
06.01.2020 14:00;129.058
06.01.2020 14:15;130.936
06.01.2020 14:30;130.037
06.01.2020 14:45;129.425
06.01.2020 15:00;129.499
06.01.2020 15:15;128.804
06.01.2020 15:30;129.075
06.01.2020 15:45;127.754
06.01.2020 16:00;126.676
06.01.2020 16:15;128.108
06.01.2020 16:30;131.155
06.01.2020 16:45;136.792
06.01.2020 17:00;141.872
06.01.2020 17:15;144.694
06.01.2020 17:30;148.357
06.01.2020 17:45;150.796
06.01.2020 18:00;151.789
06.01.2020 18:15;153.652
06.01.2020 18:30;151.725
06.01.2020 18:45;151.357
06.01.2020 19:00;149.918
06.01.2020 19:15;149.776
06.01.2020 19:30;147.573
06.01.2020 19:45;146.595
06.01.2020 20:00;142.146
06.01.2020 20:15;140.996
06.01.2020 20:30;140.064
06.01.2020 20:45;137.517
06.01.2020 21:00;135.085
06.01.2020 21:15;133.193
06.01.2020 21:30;130.434
06.01.2020 21:45;129.060
06.01.2020 22:00;123.668
06.01.2020 22:15;118.825
06.01.2020 22:30;112.409
06.01.2020 22:45;106.660
06.01.2020 23:00;100.420
06.01.2020 23:15;95.171
06.01.2020 23:30;89.824
06.01.2020 23:45;85.306
07.01.2020 00:00;80.745
07.01.2020 00:15;76.689
07.01.2020 00:30;73.188
07.01.2020 00:45;70.008
07.01.2020 01:00;67.782
07.01.2020 01:15;66.005
07.01.2020 01:30;64.944
07.01.2020 01:45;64.061
07.01.2020 02:00;63.765
07.01.2020 02:15;62.974
07.01.2020 02:30;62.576
07.01.2020 02:45;62.654
07.01.2020 03:00;62.975
07.01.2020 03:15;63.467
07.01.2020 03:30;63.796
07.01.2020 03:45;64.366
07.01.2020 04:00;65.830
07.01.2020 04:15;67.186
07.01.2020 04:30;68.595
07.01.2020 04:45;70.725
07.01.2020 05:00;74.484
07.01.2020 05:15;76.532
07.01.2020 05:30;79.178
07.01.2020 05:45;82.637
07.01.2020 06:00;89.392
07.01.2020 06:15;94.381
07.01.2020 06:30;98.510
07.01.2020 06:45;101.464
07.01.2020 07:00;105.063
07.01.2020 07:15;106.273
07.01.2020 07:30;105.749
07.01.2020 07:45;105.410
07.01.2020 08:00;107.752
07.01.2020 08:15;111.392
07.01.2020 08:30;110.608
07.01.2020 08:45;111.142
07.01.2020 09:00;112.611
07.01.2020 09:15;113.828
07.01.2020 09:30;113.703
07.01.2020 09:45;114.157
07.01.2020 10:00;114.680
07.01.2020 10:15;115.592
07.01.2020 10:30;116.273
07.01.2020 10:45;117.029
07.01.2020 11:00;117.978
07.01.2020 11:15;120.039
07.01.2020 11:30;120.313
07.01.2020 11:45;121.353
07.01.2020 12:00;122.338
07.01.2020 12:15;124.289
07.01.2020 12:30;124.191
07.01.2020 12:45;124.838
07.01.2020 13:00;125.275
07.01.2020 13:15;125.663
07.01.2020 13:30;125.712
07.01.2020 13:45;126.588
07.01.2020 14:00;130.253
07.01.2020 14:15;132.227
07.01.2020 14:30;132.029
07.01.2020 14:45;132.271
07.01.2020 15:00;130.846
07.01.2020 15:15;128.815
07.01.2020 15:30;128.368
07.01.2020 15:45;128.140
07.01.2020 16:00;127.276
07.01.2020 16:15;128.135
07.01.2020 16:30;129.754
07.01.2020 16:45;134.166
07.01.2020 17:00;140.395
07.01.2020 17:15;143.040
07.01.2020 17:30;145.022
07.01.2020 17:45;147.031
07.01.2020 18:00;148.146
07.01.2020 18:15;148.779
07.01.2020 18:30;147.533
07.01.2020 18:45;147.761
07.01.2020 19:00;147.023
07.01.2020 19:15;145.541
07.01.2020 19:30;144.066
07.01.2020 19:45;141.638
07.01.2020 20:00;138.900
07.01.2020 20:15;136.628
07.01.2020 20:30;135.177
07.01.2020 20:45;133.355
07.01.2020 21:00;130.479
07.01.2020 21:15;130.162
07.01.2020 21:30;126.075
07.01.2020 21:45;125.767
07.01.2020 22:00;120.374
07.01.2020 22:15;115.504
07.01.2020 22:30;109.998
07.01.2020 22:45;104.250
07.01.2020 23:00;97.136
07.01.2020 23:15;91.974
07.01.2020 23:30;86.434
07.01.2020 23:45;82.132
08.01.2020 00:00;78.195
08.01.2020 00:15;74.173
08.01.2020 00:30;70.544
08.01.2020 00:45;67.617
08.01.2020 01:00;65.477
08.01.2020 01:15;63.545
08.01.2020 01:30;61.846
08.01.2020 01:45;61.088
08.01.2020 02:00;60.693
08.01.2020 02:15;60.013
08.01.2020 02:30;59.827
08.01.2020 02:45;59.555
08.01.2020 03:00;60.239
08.01.2020 03:15;60.702
08.01.2020 03:30;61.787
08.01.2020 03:45;62.238
08.01.2020 04:00;63.576
08.01.2020 04:15;65.503
08.01.2020 04:30;67.135
08.01.2020 04:45;69.124
08.01.2020 05:00;73.054
08.01.2020 05:15;74.833
08.01.2020 05:30;77.744
08.01.2020 05:45;81.157
08.01.2020 06:00;88.365
08.01.2020 06:15;92.725
08.01.2020 06:30;96.641
08.01.2020 06:45;100.970
08.01.2020 07:00;104.528
08.01.2020 07:15;106.609
08.01.2020 07:30;106.415
08.01.2020 07:45;105.843
08.01.2020 08:00;108.228
08.01.2020 08:15;112.743
08.01.2020 08:30;111.028
08.01.2020 08:45;112.312
08.01.2020 09:00;113.469
08.01.2020 09:15;114.588
08.01.2020 09:30;115.096
08.01.2020 09:45;115.447
08.01.2020 10:00;116.211
08.01.2020 10:15;117.669
08.01.2020 10:30;118.110
08.01.2020 10:45;118.020
08.01.2020 11:00;118.938
08.01.2020 11:15;120.904
08.01.2020 11:30;121.421
08.01.2020 11:45;122.333
08.01.2020 12:00;123.676
08.01.2020 12:15;125.090
08.01.2020 12:30;125.071
08.01.2020 12:45;125.825
08.01.2020 13:00;125.593
08.01.2020 13:15;126.199
08.01.2020 13:30;125.162
08.01.2020 13:45;124.993
08.01.2020 14:00;128.393
08.01.2020 14:15;130.444
08.01.2020 14:30;130.693
08.01.2020 14:45;130.450
08.01.2020 15:00;131.192
08.01.2020 15:15;131.452
08.01.2020 15:30;131.572
08.01.2020 15:45;131.351
08.01.2020 16:00;130.711
08.01.2020 16:15;131.219
08.01.2020 16:30;133.281
08.01.2020 16:45;137.078
08.01.2020 17:00;142.727
08.01.2020 17:15;142.116
08.01.2020 17:30;142.738
08.01.2020 17:45;144.768
08.01.2020 18:00;145.928
08.01.2020 18:15;146.896
08.01.2020 18:30;146.045
08.01.2020 18:45;145.928
08.01.2020 19:00;144.876
08.01.2020 19:15;143.420
08.01.2020 19:30;141.326
08.01.2020 19:45;140.099
08.01.2020 20:00;136.075
08.01.2020 20:15;133.994
08.01.2020 20:30;133.195
08.01.2020 20:45;130.858
08.01.2020 21:00;129.155
08.01.2020 21:15;126.918
08.01.2020 21:30;124.500
08.01.2020 21:45;123.177
08.01.2020 22:00;120.334
08.01.2020 22:15;114.999
08.01.2020 22:30;108.734
08.01.2020 22:45;102.551
08.01.2020 23:00;95.984
08.01.2020 23:15;90.732
08.01.2020 23:30;85.735
08.01.2020 23:45;80.975
09.01.2020 00:00;76.794
09.01.2020 00:15;72.980
09.01.2020 00:30;69.634
09.01.2020 00:45;67.258
09.01.2020 01:00;64.320
09.01.2020 01:15;62.455
09.01.2020 01:30;60.722
09.01.2020 01:45;59.765
09.01.2020 02:00;59.393
09.01.2020 02:15;58.738
09.01.2020 02:30;58.046
09.01.2020 02:45;57.793
09.01.2020 03:00;58.125
09.01.2020 03:15;58.734
09.01.2020 03:30;59.384
09.01.2020 03:45;60.345
09.01.2020 04:00;62.313
09.01.2020 04:15;63.489
09.01.2020 04:30;65.636
09.01.2020 04:45;67.630
09.01.2020 05:00;72.032
09.01.2020 05:15;74.154
09.01.2020 05:30;76.683
09.01.2020 05:45;79.926
09.01.2020 06:00;86.750
09.01.2020 06:15;92.192
09.01.2020 06:30;95.729
09.01.2020 06:45;99.493
09.01.2020 07:00;103.371
09.01.2020 07:15;104.905
09.01.2020 07:30;105.398
09.01.2020 07:45;105.020
09.01.2020 08:00;107.508
09.01.2020 08:15;111.006
09.01.2020 08:30;110.680
09.01.2020 08:45;110.122
09.01.2020 09:00;111.876
09.01.2020 09:15;113.235
09.01.2020 09:30;112.949
09.01.2020 09:45;113.722
09.01.2020 10:00;114.340
09.01.2020 10:15;115.268
09.01.2020 10:30;116.296
09.01.2020 10:45;117.105
09.01.2020 11:00;117.270
09.01.2020 11:15;119.436
09.01.2020 11:30;120.208
09.01.2020 11:45;120.572
09.01.2020 12:00;122.036
09.01.2020 12:15;123.611
09.01.2020 12:30;124.427
09.01.2020 12:45;125.287
09.01.2020 13:00;124.926
09.01.2020 13:15;124.588
09.01.2020 13:30;124.417
09.01.2020 13:45;124.089
09.01.2020 14:00;127.490
09.01.2020 14:15;129.224
09.01.2020 14:30;130.221
09.01.2020 14:45;129.244
09.01.2020 15:00;129.691
09.01.2020 15:15;129.154
09.01.2020 15:30;129.134
09.01.2020 15:45;128.842
09.01.2020 16:00;128.133
09.01.2020 16:15;129.704
09.01.2020 16:30;131.455
09.01.2020 16:45;135.244
09.01.2020 17:00;141.696
09.01.2020 17:15;140.664
09.01.2020 17:30;142.062
09.01.2020 17:45;143.758
09.01.2020 18:00;144.975
09.01.2020 18:15;144.742
09.01.2020 18:30;143.431
09.01.2020 18:45;143.128
09.01.2020 19:00;143.587
09.01.2020 19:15;141.690
09.01.2020 19:30;140.433
09.01.2020 19:45;138.446
09.01.2020 20:00;135.955
09.01.2020 20:15;133.337
09.01.2020 20:30;132.103
09.01.2020 20:45;130.619
09.01.2020 21:00;127.988
09.01.2020 21:15;127.219
09.01.2020 21:30;123.917
09.01.2020 21:45;122.842
09.01.2020 22:00;117.448
09.01.2020 22:15;112.061
09.01.2020 22:30;106.025
09.01.2020 22:45;100.726
09.01.2020 23:00;94.692
09.01.2020 23:15;90.008
09.01.2020 23:30;84.860
09.01.2020 23:45;79.791
10.01.2020 00:00;76.045
10.01.2020 00:15;72.036
10.01.2020 00:30;68.670
10.01.2020 00:45;66.210
10.01.2020 01:00;63.738
10.01.2020 01:15;61.563
10.01.2020 01:30;60.403
10.01.2020 01:45;59.039
10.01.2020 02:00;58.359
10.01.2020 02:15;57.484
10.01.2020 02:30;57.209
10.01.2020 02:45;57.180
10.01.2020 03:00;57.476
10.01.2020 03:15;57.564
10.01.2020 03:30;58.832
10.01.2020 03:45;60.262
10.01.2020 04:00;61.959
10.01.2020 04:15;63.700
10.01.2020 04:30;65.601
10.01.2020 04:45;67.672
10.01.2020 05:00;71.749
10.01.2020 05:15;73.909
10.01.2020 05:30;76.552
10.01.2020 05:45;79.912
10.01.2020 06:00;85.552
10.01.2020 06:15;89.572
10.01.2020 06:30;94.262
10.01.2020 06:45;99.135
10.01.2020 07:00;102.959
10.01.2020 07:15;105.110
10.01.2020 07:30;105.102
10.01.2020 07:45;105.615
10.01.2020 08:00;107.223
10.01.2020 08:15;110.737
10.01.2020 08:30;111.992
10.01.2020 08:45;113.026
10.01.2020 09:00;114.486
10.01.2020 09:15;115.999
10.01.2020 09:30;116.216
10.01.2020 09:45;115.628
10.01.2020 10:00;117.289
10.01.2020 10:15;118.000
10.01.2020 10:30;118.700
10.01.2020 10:45;119.359
10.01.2020 11:00;119.497
10.01.2020 11:15;121.626
10.01.2020 11:30;121.878
10.01.2020 11:45;123.698
10.01.2020 12:00;126.470
10.01.2020 12:15;127.399
10.01.2020 12:30;127.695
10.01.2020 12:45;127.352
10.01.2020 13:00;127.428
10.01.2020 13:15;127.920
10.01.2020 13:30;127.843
10.01.2020 13:45;128.664
10.01.2020 14:00;133.199
10.01.2020 14:15;135.785
10.01.2020 14:30;135.985
10.01.2020 14:45;134.824
10.01.2020 15:00;135.270
10.01.2020 15:15;134.041
10.01.2020 15:30;133.440
10.01.2020 15:45;132.405